Location: Unspecified
(0.0000°N, 0.0000°E)
Time: 02:48:17
(UTC+02:00)

Cosmos 1954 Rocket - Visible Passes

Search period start: 23 October 2017 00:00
Search period end: 01 November 2017 23:00
Orbit: 752 x 782 km, 74.0° (Epoch: 22 October)

Date Brightness Start Highest point End Pass type
(mag) Time Alt. Az. Time Alt. Az. Time Alt. Az.
25 Oct 6.1 22:04:58 10° SSW 22:06:23 19° SSW 22:06:23 19° SSW visible
26 Oct 5.2 21:27:57 10° S 21:30:44 29° SSE 21:30:44 29° SSE visible
27 Oct 5.3 20:51:39 10° SSE 20:55:09 22° ESE 20:55:09 22° ESE visible
27 Oct 6.5 22:33:33 10° SW 22:35:29 17° WSW 22:35:29 17° WSW visible
28 Oct 5.9 20:17:24 10° ESE 20:18:28 11° ESE 20:19:32 10° E visible
28 Oct 5.0 21:55:13 10° SSW 22:00:01 43° W 22:00:01 43° W visible
29 Oct 3.9 20:17:38 10° SSW 20:22:58 90° ESE 20:24:39 45° NNE visible
30 Oct 4.4 19:40:40 10° S 19:45:42 43° ESE 19:49:22 18° NE visible
30 Oct 6.9 21:26:24 10° W 21:27:28 11° WNW 21:28:32 10° WNW visible
31 Oct 5.3 19:04:27 10° SSE 19:08:25 21° ESE 19:12:22 10° NE visible
31 Oct 6.2 20:46:04 10° SW 20:50:10 23° WNW 20:54:16 10° NNW visible
01 Nov 5.0 20:07:49 10° SSW 20:12:54 46° WNW 20:17:58 10° N visible
